Preview of NWS' New Version of Forecast
This preview is not operational and should not be used for support decisions.

Regional Weather Roundup (RWR)

Issued by National Weather Service (NWS)

                            
000
ASUS44 KMEG 181500
RWRTN 
TENNESSEE HOURLY STATE WEATHER ROUNDUP
NATIONAL WEATHER SERVICE MEMPHIS TN
1000 AM CDT THU APR 18 2019

TNZ002-004-019-021-049-052-054-088>092-181600-
WEST TENNESSEE
  
CITY           SKY/WX    TMP DP  RH WIND       PRES   REMARKS
MEMPHIS INTL   CLOUDY    66  62  87 NW5       29.76F                  
NWS MEMPHIS      N/A     63 N/A N/A MISG        N/A                   
JACKSON        CLOUDY    63  61  93 S5        29.79R                  
DYERSBURG      LGT RAIN  62  61  96 CALM      29.78S                  
$$

TNZ008-025-027-028-033-062-065-066-181600-
NORTH MIDDLE TENNESSEE
  
CITY           SKY/WX    TMP DP  RH WIND       PRES   REMARKS
NASHVILLE      CLOUDY    69  56  62 S13G25    29.87R                  
CLARKSVILLE    CLOUDY    66  57  72 S8G18     29.81F                  
CROSSVILLE     FAIR      68  55  63 S13G21    29.95R                  
$$

TNZ061-075-076-078-094-096-097-181600-
SOUTH MIDDLE TENNESSEE
  
CITY           SKY/WX    TMP DP  RH WIND       PRES   REMARKS
$$

TNZ017-018-042-046-047-181600-
NORTHEAST TENNESSEE
  
CITY           SKY/WX    TMP DP  RH WIND       PRES   REMARKS
TRI CITIES     PTSUNNY   72  50  45 VRB3      29.96S                  
$$

TNZ012-013-036-069-073-074-181600-
CENTRAL EAST TENNESSEE
  
CITY           SKY/WX    TMP DP  RH WIND       PRES   REMARKS
KNOXVILLE      PTSUNNY   75  54  47 SW20G29   29.92F                  
OAK RIDGE      PTSUNNY   74  54  49 VRB7G18   29.94F                  
$$

TNZ083-085-099-181600-
SOUTHEAST TENNESSEE
  
CITY           SKY/WX    TMP DP  RH WIND       PRES   REMARKS
CHATTANOOGA    FAIR      73  57  57 S13       29.95S                  
$$

SKY/WX REPORTED AS FAIR MEANS FEW OR NO CLOUDS BELOW
12 THOUSAND FEET.